Home > Weather > Santo Domingo > Past weeks

Flag for Ecuador Past Weather in Santo Domingo, Ecuador — Yesterday and Last 2 Weeks

Now
52 °F

Passing clouds.


Feels Like: 47 °F
Forecast: 75 / 88 °F
Wind: 13 mph from South

Location: Latacunga Airport

Current Time: Jun 26, 2016 at 7:31:22 PM

Latest Report: Jun 26, 2016 at 7:00 PM


Visibility: N/A

Pressure: 30.42 "Hg (28.44 "Hg at 560m altitude)

Humidity: 100%

Dew Point: 52 °F

Location of Santo DomingoLocation

Past Weather in Santo Domingo — Graph

°F

Santo Domingo Temperature Yesterday

Maximum temperature yesterday: 64 °F (at 1:00 PM)
Minimum temperature yesterday: 43 °F (at 5:00 AM)
Average temperature yesterday: 54 °F

High & Low Weather Summary for the Past Weeks

 TemperatureHumidityPressure
High66 °F (Jun 12, 2:00 PM)100% (Jun 11, 7:00 PM)30.57 "Hg (Jun 11, 7:00 PM)
Low43 °F (Jun 25, 5:00 AM)46% (Jun 12, 4:00 PM)30.33 "Hg (Jun 18, 4:00 PM)
Average54 °F92%30.45 "Hg
* Reported Jun 11 6:00 PM — Jun 26 6:00 PM, Santo Domingo, Weather by CustomWeather, © 2016

Note: Actual official high and low records may vary slightly from our data, if they occured in-between our weather recording intervals... More about our weather records

Advertising

Santo Domingo Weather History for the Previous 24 Hours

Scroll right to see more
 ConditionsComfort  
Time TempWeatherWind HumidityBarometerVisibility
6:00 PM
Sun, Jun 26
55 °FScattered clouds.18 mph94%30.39 "HgN/A
5:00 PM59 °FScattered clouds.20 mph77%30.36 "HgN/A
4:00 PM61 °FPartly sunny.15 mph77%30.36 "HgN/A
3:00 PM61 °FBroken clouds.17 mph72%30.36 "HgN/A
2:00 PM63 °FBroken clouds.13 mph73%30.39 "HgN/A
1:00 PM59 °FBroken clouds.15 mph82%30.42 "HgN/A
12:00 PM59 °FScattered showers. Broken clouds.15 mph82%30.45 "HgN/A
11:00 AM59 °FScattered showers. Partly sunny.20 mph82%30.45 "HgN/A
10:00 AM57 °FScattered showers. Broken clouds.17 mph82%30.45 "HgN/A
9:00 AM52 °FBroken clouds.6 mph100%30.45 "HgN/A
8:00 AM50 °FBroken clouds.8 mph100%30.45 "HgN/A
7:00 AM50 °FMore clouds than sun.6 mph100%30.45 "HgN/A
6:00 AM48 °FMostly cloudy.9 mph100%30.42 "HgN/A
5:00 AM48 °FPassing clouds.6 mph100%30.39 "HgN/A
4:00 AM48 °FPassing clouds.5 mph100%30.39 "HgN/A
3:00 AM50 °FPassing clouds.6 mph100%30.42 "HgN/A
2:00 AM50 °FPassing clouds.9 mph100%30.42 "HgN/A
1:00 AM50 °FPassing clouds.9 mph100%30.42 "HgN/A
12:00 AM50 °FPassing clouds.5 mph100%30.45 "HgN/A
11:00 PM
Sat, Jun 25
50 °FPassing clouds.7 mph100%30.45 "HgN/A
10:00 PM52 °FPassing clouds.9 mph100%30.45 "HgN/A
9:00 PM52 °FPassing clouds.9 mph100%30.42 "HgN/A
8:00 PM52 °FPassing clouds.15 mph100%30.39 "HgN/A
7:00 PM54 °FPassing clouds.17 mph100%30.39 "HgN/A
Weather by CustomWeather, © 2016

See weather overviewHow to use our weather pages